Powrót do katalogu

STARLINK-6236

AktywnyŁącznośćVLEO
NORAD 56422·PAYLOAD·🇺🇸 United States

Wystrzelony May 4, 2023 z Cape Canaveral Space Force Station

Loading…

Następne Przeloty (najbliższe 24 godziny)

TLE

ŚwieżeSource: CelesTrak SupGP

Epoka: Sep 15, 2026, 02:23 UTC

1 56422C 23061BA  26258.09979167 -.00006758  00000+0 -24482-3 0  2580
2 56422  43.0016 189.9509 0001571 264.5749 199.4970 15.27575368    16

Śledź STARLINK-6236 w czasie rzeczywistym z AllMySat

Download on the App Store